This is the latest recevied weather packets stored in our database for station/object KC1HBM. If no packets are shown the sender has not sent any weather packets the latest 10 day(s).
| Time | Temp. | Humidity | Pressure | Rain* | Wind** | Luminosity | Snow |
|---|---|---|---|---|---|---|---|
| 1777964422 | 10.56° C | 80% | 1006.7 hPa | 0 mm | - | 0 W/m² | - |
| 1777964118 | 10.56° C | 80% | 1006.7 hPa | 0 mm | - | 0 W/m² | - |
| 1777963815 | 10.56° C | 79% | 1006.5 hPa | 0 mm | - | 0 W/m² | - |
| 1777963512 | 11.11° C | 79% | 1006.6 hPa | 0 mm | - | 0 W/m² | - |
| 1777963210 | 11.11° C | 79% | 1006.5 hPa | 0 mm | - | 0 W/m² | - |
| 1777962907 | 11.11° C | 79% | 1006.3 hPa | 0 mm | - | 0 W/m² | - |
| 1777962603 | 11.11° C | 79% | 1006.7 hPa | 0 mm | - | 0 W/m² | - |
| 1777962300 | 10.56° C | 80% | 1006.5 hPa | 0 mm | - | 0 W/m² | - |
| 1777961996 | 10.56° C | 79% | 1006.4 hPa | 0 mm | - | 0 W/m² | - |
| 1777961694 | 10.56° C | 79% | 1006.4 hPa | 0 mm | - | 0 W/m² | - |
| 1777961392 | 11.11° C | 78% | 1006.5 hPa | 0 mm | - | 0 W/m² | - |
| 1777961089 | 11.67° C | 75% | 1006.4 hPa | 0 mm | - | 0 W/m² | - |
| 1777960785 | 12.78° C | 71% | 1006.7 hPa | 0 mm | - | 0 W/m² | - |
| 1777960481 | 12.78° C | 68% | 1006.5 hPa | 0 mm | - | 0 W/m² | - |
| 1777960178 | 13.33° C | 67% | 1006.3 hPa | 0 mm | - | 0 W/m² | - |
| 1777959876 | 13.89° C | 65% | 1006.5 hPa | 0 mm | - | 0 W/m² | - |
| 1777959573 | 13.89° C | 65% | 1006.3 hPa | 0 mm | - | 0 W/m² | - |
| 1777959270 | 13.89° C | 64% | 1006.5 hPa | 0 mm | - | 0 W/m² | - |
| 1777958967 | 14.44° C | 62% | 1006.5 hPa | 0 mm | - | 0 W/m² | - |
| 1777958664 | 15° C | 61% | 1006.6 hPa | 0 mm | - | 0 W/m² | - |
| 1777958361 | 15° C | 59% | 1006.4 hPa | 0 mm | - | 0 W/m² | - |
| 1777958058 | 15° C | 59% | 1006.5 hPa | 0 mm | - | 0 W/m² | - |
| 1777957756 | 15° C | 60% | 1006.6 hPa | 0 mm | - | 0 W/m² | - |
| 1777957455 | 15° C | 60% | 1006.3 hPa | 0 mm | - | 0 W/m² | - |
| 1777957151 | 15° C | 60% | 1006.3 hPa | 0 mm | - | 0 W/m² | - |
* Rain latest hour (hover to see other rain measurements)
** Current wind speed in m/s (hover to see current wind gust speed)